User: anonymous
Location: Solon
(41.3849°N, 81.4081°W)
Time: 07:59:24
(UTC-04:00)
Language:

CZ-2C R/B - Orbit

View from above orbital plane
View from above orbital plane
View from above satellite
View from above satellite

Ground track
Ground track

The orbit data is extracted from the following two-line orbital elements,

1 28480U 04046B   14293.46402635  .00000424  00000-0  17736-3 0  4683
2 28480 098.1072 079.9157 0142271 210.9333 218.2875 14.25353868515938
Epoch (UTC): 20 October 2014 11:08:11
Eccentricity: 0.0142271
inclination: 98.1072°
perigee height: 705 km
apogee height: 909 km
right ascension of ascending node: 79.9157°
argument of perigee: 210.9333°
revolutions per day: 14.25353868
mean anomaly at epoch: 218.2875°
orbit number at epoch: 51593

The dashed part of the orbit path shows where the satellite is in the earth's shadow,  

DLR